This is the latest recevied weather packets stored in our database for station/object KB3KAV. If no packets are shown the sender has not sent any weather packets the latest 10 day(s).
| Time | Temp. | Humidity | Pressure | Rain* | Wind** | Luminosity | Snow |
|---|---|---|---|---|---|---|---|
| 1787602292 | 20° C | 71% | 1044.1 hPa | 0 mm | - | 146 W/m² | - |
| 1787601692 | 20° C | 72% | 1043.8 hPa | 0 mm | - | 56 W/m² | - |
| 1787601093 | 20.56° C | 66% | 1043.9 hPa | 0 mm | - | 49 W/m² | - |
| 1787600489 | 21.67° C | 64% | 1043.6 hPa | 0 mm | - | 143 W/m² | - |
| 1787599887 | 20.56° C | 66% | 1043.6 hPa | 0 mm | - | 690 W/m² | - |
| 1787599285 | 21.11° C | 67% | 1043.7 hPa | 0 mm | - | 527 W/m² | - |
| 1787598681 | 20.56° C | 69% | 1043.9 hPa | 0 mm | - | 106 W/m² | - |
| 1787598077 | 21.11° C | 67% | 1043.8 hPa | 0 mm | - | 272 W/m² | - |
| 1787597477 | 20.56° C | 72% | 1043.8 hPa | 0 mm | - | 180 W/m² | - |
| 1787596873 | 21.11° C | 66% | 1044 hPa | 0 mm | - | 276 W/m² | - |
| 1787596269 | 20° C | 68% | 1043.8 hPa | 0 mm | - | 210 W/m² | - |
| 1787595667 | 20.56° C | 64% | 1043.9 hPa | 0 mm | - | 213 W/m² | - |
| 1787595062 | 20.56° C | 64% | 1043.5 hPa | 0 mm | - | 290 W/m² | - |
| 1787594457 | 20.56° C | 63% | 1043.5 hPa | 0 mm | - | 278 W/m² | - |
| 1787593851 | 21.11° C | 66% | 1043.7 hPa | 0 mm | - | 331 W/m² | - |
| 1787593247 | 20.56° C | 65% | 1043.9 hPa | 0 mm | - | 375 W/m² | - |
| 1787592643 | 21.11° C | 65% | 1043.5 hPa | 0 mm | - | 179 W/m² | - |
| 1787592038 | 21.11° C | 65% | 1043.7 hPa | 0 mm | - | 886 W/m² | - |
| 1787591434 | 21.11° C | 69% | 1043.6 hPa | 0 mm | - | 707 W/m² | - |
| 1787590833 | 20° C | 67% | 1043.5 hPa | 0 mm | - | 303 W/m² | - |
| 1787590228 | 20.56° C | 66% | 1043.5 hPa | 0 mm | - | 721 W/m² | - |
| 1787589626 | 20.56° C | 68% | 1043.7 hPa | 0 mm | - | 210 W/m² | - |
| 1787589021 | 20.56° C | 67% | 1043.8 hPa | 0 mm | - | 414 W/m² | - |
| 1787588419 | 20° C | 67% | 1043.7 hPa | 0 mm | - | 643 W/m² | - |
| 1787587815 | 20.56° C | 67% | 1043.9 hPa | 0 mm | - | 702 W/m² | - |
* Rain latest hour (hover to see other rain measurements)
** Current wind speed in m/s (hover to see current wind gust speed)